• în România
  • Lista ţărilor
  • Pe 7 zile
  • Temperatura apei
  • Hartă satelitară
  • Meteo pe hartă
  • Widget-uri
  • user-avatar
    Intrare

    Meteo pe oră la Verhniy Shibryay

    Astăzi, 15 Noiembrie, Joi

    Timp Temperatura Precipitaţii Vânt Presiune Umiditate
    00:00 -6°C° 0 mm 3 m/s 764 mmHg 30%
    01:00 -6°C° 0 mm 3 m/s 764 mmHg 30%
    02:00 -7°C° 0 mm 3 m/s 764 mmHg 30%
    03:00 -7°C° 0 mm 3 m/s 764 mmHg 30%
    04:00 -7°C° 0 mm 3 m/s 764 mmHg 30%
    05:00 -7°C° 0 mm 3 m/s 764 mmHg 31%
    06:00 -7°C° 0 mm 3 m/s 764 mmHg 31%
    07:00 -7°C° 0 mm 3 m/s 764 mmHg 30%
    08:00 -7°C° 0 mm 3 m/s 765 mmHg 29%
    09:00 -6°C° 0 mm 3 m/s 765 mmHg 28%
    10:00 -5°C° 0 mm 3 m/s 765 mmHg 27%
    11:00 -4°C° 0 mm 3 m/s 765 mmHg 25%
    12:00 -2°C° 0 mm 3 m/s 765 mmHg 23%
    13:00 -2°C° 0 mm 3 m/s 766 mmHg 23%
    14:00 -2°C° 0 mm 3 m/s 766 mmHg 23%
    15:00 -1°C° 0 mm 3 m/s 766 mmHg 23%
    16:00 -2°C° 0 mm 3 m/s 766 mmHg 25%
    17:00 -4°C° 0 mm 3 m/s 766 mmHg 28%
    18:00 -5°C° 0 mm 3 m/s 766 mmHg 30%
    19:00 -5°C° 0 mm 3 m/s 766 mmHg 30%
    20:00 -5°C° 0 mm 3 m/s 767 mmHg 30%
    21:00 -5°C° 0 mm 3 m/s 767 mmHg 30%
    22:00 -6°C° 0 mm 3 m/s 767 mmHg 31%
    23:00 -6°C° 0 mm 3 m/s 767 mmHg 31%

    Mâine, 16 Noiembrie, Vineri

    Timp Temperatura Precipitaţii Vânt Presiune Umiditate
    00:00 -6°C° 0 mm 3 m/s 768 mmHg 31%
    01:00 -6°C° 0 mm 3 m/s 768 mmHg 31%
    02:00 -6°C° 0 mm 3 m/s 768 mmHg 31%
    03:00 -6°C° 0 mm 3 m/s 768 mmHg 30%
    04:00 -7°C° 0 mm 3 m/s 768 mmHg 30%
    05:00 -7°C° 0 mm 3 m/s 768 mmHg 29%
    06:00 -7°C° 0 mm 3 m/s 768 mmHg 28%
    07:00 -6°C° 0 mm 3 m/s 768 mmHg 27%
    08:00 -6°C° 0 mm 3 m/s 769 mmHg 25%
    09:00 -6°C° 0 mm 3 m/s 769 mmHg 24%
    10:00 -4°C° 0 mm 3 m/s 769 mmHg 22%
    11:00 -2°C° 0 mm 3 m/s 769 mmHg 20%
    12:00 -1°C° 0 mm 3 m/s 769 mmHg 19%
    13:00 -1°C° 0 mm 3 m/s 769 mmHg 20%
    14:00 -1°C° 0 mm 3 m/s 769 mmHg 21%
    15:00 -1°C° 0 mm 3 m/s 768 mmHg 22%
    16:00 -2°C° 0 mm 3 m/s 768 mmHg 24%
    17:00 -4°C° 0 mm 3 m/s 768 mmHg 26%
    18:00 -4°C° 0 mm 3 m/s 768 mmHg 27%
    19:00 -5°C° 0 mm 3 m/s 768 mmHg 27%
    20:00 -5°C° 0 mm 3 m/s 768 mmHg 27%
    21:00 -5°C° 0 mm 3 m/s 768 mmHg 27%
    22:00 -5°C° 0 mm 3 m/s 768 mmHg 27%
    23:00 -5°C° 0 mm 3 m/s 768 mmHg 27%

    Poimâine, 17 Noiembrie, Sâmbătă

    Timp Temperatura Precipitaţii Vânt Presiune Umiditate
    00:00 -5°C° 0 mm 2 m/s 768 mmHg 27%
    01:00 -5°C° 0 mm 2 m/s 768 mmHg 27%
    02:00 -5°C° 0 mm 2 m/s 768 mmHg 27%
    03:00 -5°C° 0 mm 2 m/s 768 mmHg 27%
    04:00 -5°C° 0 mm 2 m/s 767 mmHg 27%
    05:00 -5°C° 0 mm 2 m/s 767 mmHg 27%
    06:00 -5°C° 0 mm 2 m/s 767 mmHg 27%
    07:00 -5°C° 0 mm 2 m/s 767 mmHg 27%
    08:00 -5°C° 0 mm 2 m/s 766 mmHg 26%
    09:00 -4°C° 0 mm 2 m/s 766 mmHg 25%
    10:00 -3°C° 0 mm 2 m/s 766 mmHg 23%
    11:00 0°C° 0 mm 1 m/s 765 mmHg 21%
    12:00 +1°C° 0 mm 1 m/s 765 mmHg 19%
    13:00 +1°C° 0 mm 1 m/s 764 mmHg 20%
    14:00 +1°C° 0 mm 1 m/s 764 mmHg 22%
    15:00 +1°C° 0 mm 1 m/s 763 mmHg 23%
    16:00 0°C° 0 mm 1 m/s 763 mmHg 24%
    17:00 0°C° 0 mm 1 m/s 762 mmHg 25%
    18:00 -1°C° 0 mm 1 m/s 762 mmHg 25%
    19:00 -1°C° 0 mm 1 m/s 761 mmHg 25%
    20:00 -1°C° 0 mm 1 m/s 761 mmHg 25%
    21:00 -3°C° 0 mm 0 m/s 760 mmHg 25%
    22:00 -2°C° 0 mm 1 m/s 760 mmHg 26%
    23:00 -2°C° 0 mm 1 m/s 759 mmHg 27%

    18 Noiembrie, Duminică

    Timp Temperatura Precipitaţii Vânt Presiune Umiditate
    00:00 -2°C° 0 mm 1 m/s 758 mmHg 27%
    01:00 -2°C° 0 mm 1 m/s 758 mmHg 28%
    02:00 -3°C° 0 mm 1 m/s 757 mmHg 30%
    03:00 -3°C° 0 mm 1 m/s 757 mmHg 31%
    04:00 -3°C° 0 mm 1 m/s 756 mmHg 31%
    05:00 -3°C° 0 mm 1 m/s 756 mmHg 32%
    06:00 -3°C° 0 mm 1 m/s 755 mmHg 33%
    07:00 -3°C° 0 mm 1 m/s 755 mmHg 33%
    08:00 -4°C° 0 mm 2 m/s 755 mmHg 34%
    09:00 -4°C° 0 mm 2 m/s 755 mmHg 34%
    10:00 -3°C° 0 mm 2 m/s 754 mmHg 34%
    11:00 -2°C° 0 mm 2 m/s 754 mmHg 34%
    12:00 -1°C° 0 mm 2 m/s 754 mmHg 34%
    13:00 -1°C° 0 mm 2 m/s 754 mmHg 37%
    14:00 -1°C° 0 mm 2 m/s 754 mmHg 40%
    15:00 +1°C° 0 mm 1 m/s 754 mmHg 43%
    16:00 -2°C° 0 mm 2 m/s 754 mmHg 47%
    17:00 -2°C° 0 mm 2 m/s 754 mmHg 51%
    18:00 -3°C° 0 mm 2 m/s 754 mmHg 54%
    19:00 -3°C° 0 mm 2 m/s 754 mmHg 58%
    20:00 -3°C° 0 mm 2 m/s 754 mmHg 61%
    21:00 -3°C° 0 mm 2 m/s 754 mmHg 65%
    22:00 -3°C° 0 mm 2 m/s 754 mmHg 69%
    23:00 -3°C° 0 mm 2 m/s 754 mmHg 74%

    19 Noiembrie, Luni

    Timp Temperatura Precipitaţii Vânt Presiune Umiditate
    00:00 -3°C° 0 mm 2 m/s 754 mmHg 79%
    01:00 -3°C° 0.1 mm 2 m/s 755 mmHg 82%
    02:00 -3°C° 0.1 mm 2 m/s 755 mmHg 85%
    03:00 -3°C° 0.1 mm 2 m/s 755 mmHg 88%
    04:00 -3°C° 0 mm 2 m/s 755 mmHg 89%
    05:00 -3°C° 0 mm 2 m/s 756 mmHg 90%
    06:00 -3°C° 0 mm 2 m/s 756 mmHg 91%
    07:00 -3°C° 0 mm 2 m/s 756 mmHg 90%
    08:00 -3°C° 0 mm 2 m/s 757 mmHg 89%
    09:00 -3°C° 0 mm 2 m/s 757 mmHg 88%
    10:00 -2°C° 0 mm 2 m/s 757 mmHg 86%
    11:00 -2°C° 0 mm 2 m/s 758 mmHg 83%
    12:00 -1°C° 0 mm 2 m/s 758 mmHg 81%
    13:00 -1°C° 0 mm 2 m/s 758 mmHg 81%
    14:00 -1°C° 0 mm 2 m/s 758 mmHg 82%
    15:00 -1°C° 0 mm 2 m/s 759 mmHg 82%
    16:00 -1°C° 0 mm 3 m/s 759 mmHg 84%
    17:00 -1°C° 0 mm 3 m/s 759 mmHg 86%
    18:00 -2°C° 0 mm 3 m/s 759 mmHg 88%
    19:00 -2°C° 0 mm 3 m/s 760 mmHg 87%
    20:00 -2°C° 0 mm 3 m/s 760 mmHg 87%
    21:00 -2°C° 0 mm 3 m/s 760 mmHg 86%
    22:00 -2°C° 0 mm 3 m/s 760 mmHg 84%
    23:00 -2°C° 0 mm 3 m/s 761 mmHg 82%

    20 Noiembrie, Marţi

    Timp Temperatura Precipitaţii Vânt Presiune Umiditate
    00:00 -2°C° 0 mm 3 m/s 761 mmHg 81%
    01:00 -2°C° 0 mm 3 m/s 761 mmHg 79%
    02:00 -4°C° 0 mm 3 m/s 761 mmHg 77%
    03:00 -4°C° 0 mm 3 m/s 761 mmHg 76%
    04:00 -4°C° 0 mm 3 m/s 761 mmHg 75%
    05:00 -4°C° 0 mm 3 m/s 761 mmHg 74%
    06:00 -5°C° 0 mm 3 m/s 761 mmHg 73%
    07:00 -4°C° 0 mm 3 m/s 761 mmHg 71%
    08:00 -4°C° 0 mm 3 m/s 761 mmHg 70%
    09:00 -4°C° 0 mm 3 m/s 761 mmHg 68%
    10:00 -2°C° 0 mm 3 m/s 761 mmHg 64%
    11:00 -2°C° 0 mm 3 m/s 761 mmHg 60%
    12:00 -1°C° 0 mm 2 m/s 761 mmHg 55%
    13:00 -1°C° 0 mm 2 m/s 761 mmHg 56%
    14:00 -1°C° 0 mm 2 m/s 761 mmHg 56%
    15:00 -1°C° 0 mm 2 m/s 760 mmHg 57%
    16:00 -2°C° 0 mm 2 m/s 760 mmHg 60%
    17:00 -2°C° 0 mm 2 m/s 760 mmHg 62%
    18:00 -3°C° 0 mm 2 m/s 760 mmHg 65%
    19:00 -3°C° 0 mm 2 m/s 760 mmHg 65%
    20:00 -3°C° 0 mm 2 m/s 760 mmHg 65%
    21:00 -4°C° 0 mm 2 m/s 760 mmHg 65%
    22:00 -4°C° 0 mm 2 m/s 760 mmHg 66%
    23:00 -4°C° 0 mm 2 m/s 760 mmHg 66%
    Arată mai mult